Regional Weather Roundup
Issued by NWS Sioux Falls, SD

Home | Current Version | Previous Version | Graphics & Text | Print | Product List | Glossary Off
Versions: 1 2 3 4 5 6 7 8 9 10 11 12 13 14 15 16 17 18 19 20 21 22 23 24 25 26 27 28 29 30 31 32 33 34 35 36 37 38 39 40 41 42 43 44 45 46 47 48 49 50

000
ASUS43 KFSD 262310
RWRFSD

WEATHER ROUNDUP FOR SE SOUTH DAKOTA/SW MINNESOTA/NW IOWA
NATIONAL WEATHER SERVICE SIOUX FALLS SD
500 PM CST SUN FEB 26 2017

NOTE: "FAIR" INDICATES FEW OR NO CLOUDS BELOW 12,000 FEET WITH NO
SIGNIFICANT WEATHER AND OR OBSTRUCTIONS TO VISIBILITY.


SDZ038>040-050-052>070-270000-
SOUTHEAST SOUTH DAKOTA

CITY           SKY/WX    TMP DP  RH WIND       PRES   REMARKS
BROOKINGS      MOSUNNY   38  22  52 SW12      29.82R
CHAMBERLAIN    MOSUNNY   42  20  42 SW15      29.81S
HURON          MOSUNNY   42  15  33 W13       29.80R
MADISON        FAIR      36  25  64 SW13      29.83S
MITCHELL       PTSUNNY   39  23  52 S12       29.84S
SIOUX FALLS    MOSUNNY   35  25  66 SW8       29.88R WCI  29
WINNER         FAIR      36  22  56 SW14      29.82S
YANKTON        SUNNY     37  21  52 S10       29.89S
$$

MNZ071-072-080-081-089-090-097-098-270000-
SOUTHWEST MINNESOTA

CITY           SKY/WX    TMP DP  RH WIND       PRES   REMARKS
FAIRMONT       CLOUDY    35  25  66 SW12      29.90R WCI  27
JACKSON        SUNNY     34  27  75 SW12      29.88R WCI  25
LUVERNE        SUNNY     34  27  75 SW13      29.88S WCI  25
MARSHALL       MOSUNNY   33  21  61 NE8       29.86R WCI  26
MONTEVIDEO     SUNNY     30  18  59 E6        29.89S WCI  24
PIPESTONE      SUNNY     36  21  55 W13       29.84R
REDWOOD FALLS  SUNNY     34  13  41 NW8       29.88R WCI  27
TRACY          CLOUDY    35  26  71 NE6       29.86R WCI  30
WINDOM         CLOUDY    37  28  70 SW14      29.86R
WORTHINGTON    SUNNY     34  25  69 SW16      29.88R WCI  24
$$

IAZ001>003-012>014-020>022-031-032-NEZ013-014-SDZ071-270000-
NORTHWEST IOWA

CITY           SKY/WX    TMP DP  RH WIND       PRES   REMARKS
CHEROKEE       SUNNY     32  24  73 SW6       29.92S WCI  27
DENISON        SUNNY     36  23  60 SW6       29.92S
ESTHERVILLE    SUNNY     31  27  85 SW9       29.89R WCI  23
LE MARS        SUNNY     36  25  64 SW8       29.92S
SHELDON        SUNNY     34  32  93 SW9       29.88S WCI  26
SIOUX CITY     SUNNY     34  25  69 SW5       29.94R WCI  30
SPENCER        SUNNY     32  26  78 SW10      29.90S WCI  24
STORM LAKE     SUNNY     30  25  80 SW7       29.91S WCI  23
$$

ABBREVIATIONS USED IN REMARKS
   TC - TEMPERATURE IN CELSIUS
  WCI - WIND CHILL INDEX
   HX - HEAT INDEX
  VSB - VISIBILITY





USA.gov is the U.S. government's official web portal to all federal, state and local government web resources and services.